sat.trackr.live / text

‹ back to catalog

2025-292F

NORAD 66998 · 2025-292F

PAYLOAD ACTIVE UNKNOWN

§ Identity

Operator
Country
PRC
Launch date
2025-12-10
Launch site
JSC
Launch vehicle
Mass (kg)
RCS (m²)

External: N2YO · Heavens-Above · Gunter

§ Orbital elements

Epoch: 2026-09-20T19:08:45.168864Z

Period
95.53 min
Inclination
97.6278°
Eccentricity
0.0015220
Mean motion
15.07330941 rev/d
Perigee alt
533.8 km
Apogee alt
554.9 km
Semi-major
6,922.5 km
B*
1.6332e-4
RAAN
338.9168°
Arg perigee
45.1741°
Mean anomaly
315.0720°
Rev number
4,285

§ Raw data

2025-292F1 66998U 25292F   26263.79774501  .00002410  00000+0  16332-3 0  99912 66998  97.6278 338.9168 0015220  45.1741 315.0720 15.07330941 42859

JSON: /api/v1/satellites/66998 · /tle

For live sub-satellite position, see the globe view (requires WebGL).

§ Visibility from observer

Set your observer location to see the next 7 days of passes ≥ 10°. The values pass through the URL so the page stays shareable.

No JS? Fill the form by hand. The geolocation button needs JavaScript.